Lid_Strength_Index
3 3 4 4 4 3 3 3 3 3 3 3 3 3 3 3 4 9 10 7 6 4 3 8 9 10 11 12 11 9 14 15 14 14 12 9 10 8 7 8 7 6 6 4 3
3 4 4 4 4 4 4 4 4 3 3 3 3 3 3 4 6 10 6 4 4 3 8 11 11 11 14 13 11 12 15 14 13 12 12 11 12 11 11 11 9 9 7 8 3
3 4 4 5 4 4 4 4 4 4 4 4 4 4 4 5 9 11 5 5 4 3 8 10 10 11 14 13 13 12 15 13 12 12 13 13 13 13 14 13 11 12 12 10 10
4 5 5 5 5 5 4 4 4 4 4 4 4 4 4 8 15 10 4 4 3 7 10 11 12 14 15 15 12 15 13 13 12 12 13 14 13 15 14 14 12 12 12 12 11
5 5 5 6 5 5 5 5 4 4 4 5 5 4 7 13 13 9 5 6 8 9 11 11 13 13 15 14 14 15 14 12 12 13 13 13 14 14 14 12 11 11 10 10 10
5 5 5 5 5 5 5 5 4 4 4 5 5 4 9 15 10 9 9 9 9 10 11 10 11 11 12 14 14 13 13 13 13 13 13 14 15 15 14 12 12 10 11 10 11
5 5 5 5 5 5 5 5 5 5 5 5 5 7 12 14 10 10 9 9 9 9 10 9 9 11 12 14 12 12 15 14 14 13 14 15 17 16 14 12 12 12 12 12 12
4 4 5 5 5 5 5 5 5 5 6 5 5 9 15 9 10 9 8 9 8 8 9 8 9 10 11 12 12 15 16 20 15 15 14 15 20 15 13 13 13 12 12 12 12
4 4 4 4 5 5 5 5 5 5 6 6 10 12 15 7 10 9 9 10 9 9 9 8 9 12 12 17 18 18 22 20 18 15 14 15 18 14 12 12 13 12 12 12 12
3 3 4 4 4 5 5 5 5 6 7 8 10 14 12 13 10 9 9 9 10 11 11 12 14 16 18 20 26 22 22 20 19 16 15 16 16 14 14 13 13 12 12 11 11
3 3 4 4 4 5 7 10 12 13 12 14 13 13 12 10 9 10 9 10 10 13 17 15 19 21 20 18 17 18 19 20 17 15 16 17 16 15 13 13 13 12 12 12 12
3 3 3 3 4 4 7 12 12 12 16 11 11 11 10 10 13 11 9 13 14 17 16 18 20 17 16 16 17 18 19 21 17 14 15 16 17 14 13 13 13 12 13 12 12
3 3 3 3 4 7 9 10 8 9 15 13 12 12 11 11 14 13 12 13 15 17 17 20 17 15 16 18 18 19 19 19 19 17 16 17 20 17 14 13 12 12 12 12 12
3 3 3 3 7 9 10 8 8 11 19 16 15 13 12 12 14 11 11 13 14 18 17 18 16 17 18 18 17 20 16 16 17 21 26 17 25 18 16 15 13 12 13 13 11
3 3 3 4 9 10 9 8 9 12 24 16 15 11 12 14 14 13 11 13 17 17 17 18 18 18 18 17 16 18 15 16 17 21 24 23 23 20 16 16 15 13 11 10 8
3 4 3 6 9 9 8 10 11 20 24 19 15 16 16 14 14 14 14 13 13 16 16 17 15 16 17 15 15 15 16 17 18 23 25 24 23 21 19 17 15 12 10 9 8
3 4 5 6 10 8 9 12 21 24 19 21 19 17 17 17 16 16 17 17 19 23 21 18 17 16 15 18 15 16 20 29 29 30 27 20 25 19 15 13 12 11 10 9 9
3 4 5 7 8 9 11 19 26 22 22 18 18 18 20 17 18 18 19 20 17 18 22 23 25 17 15 17 19 19 19 27 32 29 25 19 25 18 12 10 10 10 10 9 9
3 7 8 7 7 9 16 25 22 21 17 19 19 21 21 18 19 20 20 21 17 16 22 23 21 17 15 15 16 18 20 17 27 28 27 25 20 15 12 10 10 11 10 10 10
7 9 9 7 8 10 16 20 21 16 16 18 21 20 24 21 23 22 21 18 17 15 16 19 24 18 17 15 16 17 16 23 25 28 32 26 24 19 14 13 12 12 12 11 11
9 11 10 7 8 13 18 19 17 16 15 18 21 20 19 20 21 24 23 18 15 16 15 18 21 21 17 19 20 19 19 18 20 22 26 27 23 15 15 14 13 13 12 12 11
10 15 10 9 16 15 17 16 14 17 15 16 17 18 19 19 21 21 22 19 15 16 18 17 20 25 21 18 16 17 17 17 24 25 22 21 22 12 11 12 13 12 12 12 11
13 14 11 11 17 17 16 17 16 17 16 17 18 17 17 19 23 20 22 16 15 17 19 17 24 31 25 21 17 19 17 16 18 20 20 26 22 12 12 12 12 13 13 12 12
13 16 15 15 14 15 18 18 18 15 15 15 16 17 18 19 19 23 21 17 15 18 13 15 22 24 26 24 21 21 19 18 19 28 22 20 18 16 15 15 14 13 13 13 12
9 14 14 18 16 15 15 16 17 18 15 15 17 17 18 20 20 23 21 18 16 14 16 19 26 23 21 20 20 20 19 19 20 19 23 20 18 16 16 15 14 13 13 13 13
10 12 13 14 14 15 14 15 17 16 16 17 18 17 17 19 19 21 19 19 19 17 18 18 28 25 28 23 21 22 19 19 19 19 19 18 19 15 14 14 14 14 14 14 14
7 8 9 12 14 15 15 14 15 15 15 14 15 16 17 16 16 17 17 17 17 18 19 19 24 29 30 24 27 28 23 21 20 19 19 20 16 16 15 14 15 16 14 15 14